Content
SEND FEEDBACK

Daily
Averages
Monthly
Summary
Turkmenistan

KURTILE, TURKMENISTAN


Home > Asia > Turkmenistan
Elevation: 748 feet     Latitude: 37 58N     Longitude: 058 19E

WEATHER
 
SELECT A DAY
Number of Records: 177,354;   Date Range: 3/15/97 - 8/12/14
 
SHARE

PRINT THIS DATA

[ ← Previous Day ]
WEATHER ALMANAC - FEBRUARY 8, 2013
[ Next Day → ]
[ °C ]   °F
Weather ElementAverageHighLow
Temperature52.2 °F60 °F (2:00 pm)44.6 °F (6:00 am)
Dewpoint41.6 °F45 °F (8:00 pm)39 °F (8:00 am)
Humidity65.6 %82 % (11:00 pm)41 % (2:00 pm)
Barometer30.11 in30.20 in (11:00 pm)30.01 in (1:00 am)
Wind Speed4.3 mph11.2 mph (1:00 am)
Weather ElementAverage
Visibility5.9 mi
Wind DirectionSSW (203.1 °)

Weather ElementTotal
Precipitation---
Heating Degree Days12.7 (Base 65)
Growing Degree Days2.3 (Base 50)
Averaged from 31 records on February 8, 2013
WEATHER CONDITIONS BREAKOUT
WIND DIRECTION BREAKOUT
WEATHER BY HOUR - FEBRUARY 8, 2013
[ °C ]   °F
Local TimeTemperatureDewpointHumidityBarometerVisibilityWind DirectionWind SpeedGust SpeedPrecipitationEventsConditions
1:00 AM55.4 °F41.0 °F58 %30.01 in6.2 miNW (310°)11.2 mphScattered Clouds
2:00 AM52.0 °F41.0 °F56 %30.02 in6.0 miWNW (300°)11.2 mph
2:00 AM51.8 °F41.0 °F67 %30.01 in6.2 miWNW (300°)11.2 mphClear
3:00 AM48.2 °F41.0 °F76 %30.01 in6.2 miENE (70°)4.5 mphClear
4:00 AM46.4 °F41.0 °F81 %30.04 in6.2 miWNW (290°)8.9 mphScattered Clouds
5:00 AM49.0 °F40.0 °F63 %30.06 in6.0 miSW (230°)4.5 mphScattered Clouds
5:00 AM46.4 °F39.2 °F76 %30.04 in6.2 miSW (230°)6.7 mphPartly Cloudy
6:00 AM44.6 °F39.2 °F81 %30.04 in6.2 miSW (220°)6.7 mphPartly Cloudy
7:00 AM46.4 °F39.2 °F76 %30.06 in6.2 miVariable2.2 mphPartly Cloudy
8:00 AM45.0 °F39.0 °F73 %30.09 in6.0 miSouth (180°)2.2 mphScattered Clouds
8:00 AM44.6 °F39.2 °F81 %30.06 in6.2 miSSW (200°)4.5 mphPartly Cloudy
9:00 AM46.4 °F41.0 °F81 %30.09 in6.2 miNorth (360°)2.2 mphScattered Clouds
10:00 AM50.0 °F41.0 °F71 %30.12 in6.2 miVariable2.2 mphMostly Cloudy
11:00 AM53.0 °F40.0 °F51 %30.15 in6.0 miNorth (350°)2.2 mphScattered Clouds
11:00 AM53.6 °F41.0 °F62 %30.15 in6.2 miVariable2.2 mphMostly Cloudy
12:00 PM55.4 °F41.0 °F58 %30.15 in6.2 miNorth (350°)4.5 mphMostly Cloudy
1:00 PM57.2 °F41.0 °F55 %30.15 in6.2 miVariable2.2 mphScattered Clouds
2:00 PM60.0 °F42.0 °F41 %30.15 in6.0 miNorth (10°)6.7 mphScattered Clouds
2:00 PM59.0 °F42.8 °F55 %30.12 in6.2 miNorth (350°)4.5 mphScattered Clouds
3:00 PM59.0 °F42.8 °F55 %30.12 in6.2 miNW (320°)6.7 mphScattered Clouds
4:00 PM59.0 °F42.8 °F55 %30.12 in6.2 miNorth (350°)4.5 mphMostly Cloudy
5:00 PM58.0 °F42.0 °F43 %30.15 in6.0 miNE (40°)4.5 mphMostly Cloudy
5:00 PM59.0 °F42.8 °F55 %30.15 in6.2 miNorth (360°)4.5 mphMostly Cloudy
6:00 PM59.0 °F42.8 °F55 %30.15 in6.2 miNorth (360°)2.2 mphMostly Cloudy
7:00 PM57.2 °F42.8 °F59 %30.15 in6.2 miCalmMostly Cloudy
8:00 PM53.0 °F45.0 °F67 %30.19 in6.0 miCalmPartly Cloudy
8:00 PM51.8 °F44.6 °F76 %30.18 in6.2 miCalmScattered Clouds
9:00 PM50.0 °F42.8 °F76 %30.18 in4.3 miSW (230°)4.5 mphScattered Clouds
10:00 PM50.0 °F42.8 °F76 %30.18 in4.3 miWSW (240°)4.5 mphClear
11:00 PM50.0 °F44.0 °F74 %30.20 in6.0 miCalm
11:00 PM48.2 °F42.8 °F82 %30.18 in3.7 miWSW (240°)2.2 mphClear
Hourly data recorded from UTAA, located miles away from Kurtile, Turkmenistan







STORIES FROM OUR PARTNERS